Find Starlink 30799

NORAD ID: 58121 Int'l Des: 2023-162 Owner: SPXS Country: US Constellation: starlink operational
LEOCIRCULAR

Current View

Loading 3D Globe...

About Starlink 30799

Starlink 30799 (NORAD 58121) is a starlink constellation satellite (v2 mini) launched Oct 22, 2023 by SPXS of US. It operates in LEO, CIRCULAR orbit with a mass of 730.00 kg.

Upcoming Passes

Passes for default location (London). Set your location on the main map for personalized predictions.

Altitude History

Loading altitude history...

Two-Line Element Set

1 58121U 23162D 26237.42083475 .00000187 00000-0 16317-4 0 9992
2 58121 42.9998 259.4660 0001253 275.8255 84.2454 15.27576054158112
Epoch: Aug 25, 2026 • Age: 16 hours

Current Status

Altitude 485.9 km
Apogee / Perigee N/A
Velocity 7.63 km/s
Sub-Earth Point 38.41°N, 52.05°W
Launch Date Oct 22, 2023
Age 2.8 years
Type internet

Technical Details

Classification Payload
Mass 730.00 kg
Dry Mass 700.00 kg
Total Mass 730.00 kg
Length 0.30 m
Diameter 4.10 m
Span 29.00 m
Shape Box + pan
Manufacturer SPXS
Bus Type Starlink V2M
Phase Status In Orbit
Owner/State SPXS/US

Most Searched